Tracking 19638 objects as of 20-Apr-2019
HD Live streaming from Space Station
objects crossing your sky now

THORAD DELTA 1 DEB


10-day predictions


NORAD ID: 8136
Int'l Code: 1974-089E
Perigee: 1,353.3 km
Apogee: 1,467.8 km
Inclination: 101.3 °
Period: 113.9 minutes
Semi major axis: 7781 km
RCS: 6.2661 m2 (large)
Launch date: November 15, 1974
Source: United States (US)
Launch site: AIR FORCE WESTERN TEST RANGE (AFWTR)

Note: This is SATELLITE DEBRIS
aabbcc
Your satellite tracking list
Your tracking list is empty




NASA's NSSDC Master Catalog

Two Line Element Set (TLE):
1  8136U 74089E   19109.77551212 -.00000026 +00000-0 +94897-4 0  9996
2  8136 101.3022 172.7141 0073532 300.6139 169.0205 12.64743409775141
Source of the keplerian elements: AFSPC